Regional Weather Roundup
Issued by NWS Huntsville, AL

Home | Current Version | Previous Version | Text Only | Print | Product List | Glossary On
Versions: 1 2 3 4 5 6 7 8 9 10 11 12 13 14 15 16 17 18 19 20 21 22 23 24 25 26 27
000
ASUS44 KHUN 241910
RWRHUN

WEATHER ROUNDUP FOR THE TENNESSEE VALLEY
NATIONAL WEATHER SERVICE HUNTSVILLE AL
200 PM CDT WED MAY 24 2017

ALZ001>004-242000-
NORTHWEST ALABAMA

CITY           SKY/WX    TMP DP  RH WIND       PRES   REMARKS
COURTLAND HCN    N/A     66 N/A N/A NW15        N/A
RUSSELLVILLE     N/A     66 N/A N/A MISG        N/A
SHOALS AIRPORT PTSUNNY   70  52  52 NW12G18   29.57S
SHOALS TVA RES   N/A     66 N/A N/A MISG        N/A
$$

ALZ005>007-016-242000-
NORTH CENTRAL ALABAMA

CITY           SKY/WX    TMP DP  RH WIND       PRES   REMARKS
CULLMAN AG STN   N/A     66 N/A N/A W9          N/A
DECATUR AP     PTSUNNY   67  57  70 NW13      29.55S
HUNTSVILLE AP  PTSUNNY   65  59  81 NW12G18   29.55R
MERIDIANVILLE  CLOUDY    64  55  72 W13       29.54R
REDSTONE ARSN  PTSUNNY   64  58  81 NW13G21   29.53S
VINEMONT AP    LGT RAIN  63  55  74 W9        29.59R
$$

ALZ008>010-242000-
NORTHEAST ALABAMA

CITY           SKY/WX    TMP DP  RH WIND       PRES   REMARKS
ALBERTVILLE    LGT RAIN  63  63 100 W8        29.54R
FORT PAYNE     NOT AVBL
SCOTTSBORO AP  PTSUNNY   66  55  68 W8G18     29.53S
SCOTTSBORO HCN   N/A     68 N/A N/A MISG        N/A
VALLEY HEAD      N/A     70 N/A N/A MISG        N/A
$$

TNZ076-096-097-242000-
SOUTHEASTERN MIDDLE TENNESSEE

CITY           SKY/WX    TMP DP  RH WIND       PRES   REMARKS
TULLAHOMA      CLOUDY    63  54  72 W16       29.52S
WINCHESTER     PTSUNNY   66  55  68 W10         N/A
$$

...SURROUNDING SITES...

CITY           SKY/WX    TMP DP  RH WIND       PRES   REMARKS
ATLANTA        MOSUNNY   77  60  55 SW13G23   29.50F
ANNISTON       MOSUNNY   71  57  61 W16G23    29.53F
BIRMINGHAM     PTSUNNY   70  56  61 W15       29.59R
CHATTANOOGA    PTSUNNY   73  56  54 W21G29    29.48S
CORINTH        PTSUNNY   66  54  63 VRB5      29.57S
DALTON         PTSUNNY   70  63  78 S7        29.49F
GADSDEN        LGT RAIN  69  58  67 SW17G24   29.54R
GOLDEN TRNGL   PTSUNNY   70  52  52 W9        29.57S
HALEYVILLE     CLOUDY    64  54  69 VRB7      29.60S
JACKSON TN     PTSUNNY   70  49  47 NW12      29.55S
MEMPHIS        CLOUDY    66  51  58 W15       29.59S
NASHVILLE      LGT RAIN  59  56  89 W14G23    29.49R
OXFORD MS      FAIR      66  50  55 W9        29.62R
ROME           MOSUNNY   74  63  68 W12G23    29.48F
SAVANNAH       CLOUDY    64  55  72 NW7       29.55S
SELMER         MOSUNNY   66  54  63 W14G21    29.55F
TUPELO         CLOUDY    66  52  60 W8        29.59F
TUSCALOOSA     CLOUDY    67  56  67 W12G23    29.61R
$$

...GULF COAST WEATHER...

CITY           SKY/WX    TMP DP  RH WIND       PRES   REMARKS
GULFPORT       MOSUNNY   76  54  46 W18G30    29.67S
PASCAGOULA     PTSUNNY   76  51  41 NW9G18    29.66S
MOBILE         MOSUNNY   76  53  44 NW10G17   29.66S
GULF SHORES    PTCLDY    78  61  54 W17G28    29.63S
PENSACOLA      MOSUNNY   81  60  48 SW12G20   29.60F
DESTIN         CLOUDY    80  71  74 W9G17     29.59F
PANAMA CITY    MOSUNNY   79  67  67 W17       29.59F
APPALACHICOLA  CLOUDY    78  75  90 SW17G26   29.61S
$$





USA.gov is the U.S. government's official web portal to all federal, state and local government web resources and services.